Regional Weather Roundup
Issued by NWS

Home | Current Version | Previous Version | Graphics & Text | Print | Product List | Glossary On
Versions: 1 2 3 4 5 6 7 8 9 10 11 12 13 14 15 16 17 18 19 20 21 22 23 24 25 26 27 28 29 30 31 32 33 34 35 36 37 38 39 40 41 42 43 44 45 46 47 48 49 50
000
ASUS45 KCYS 202310
RWRWY

WYOMING REGIONAL WEATHER ROUNDUP
NATIONAL WEATHER SERVICE CHEYENNE WY
500 PM MDT MON OCT 20 2014

NOTE:  "FAIR" INDICATES FEW OR NO CLOUDS BELOW 12,000 FEET
WITH NO SIGNIFICANT WEATHER AND/OR OBSTRUCTIONS TO VISIBILITY.

WYZ001-210000-
YELLOWSTONE NATIONAL PARK

CITY           SKY/WX    TMP DP  RH WIND       PRES   REMARKS
LK YELLOWSTONE   N/A     59  31  34 VRB7      30.14S
W YELLOWSTONE  NOT AVBL

$$
WYZ002>013-054>058-071-098>099-210000-
NORTHERN WYOMING

CITY           SKY/WX    TMP DP  RH WIND       PRES   REMARKS
JACKSON        MOSUNNY   66  30  26 S8        30.05F
CODY           SUNNY    N/A N/A N/A SE14      29.93S
GREYBULL       SUNNY     76  26  15 S6        29.88F
WORLAND        SUNNY     77  32  19 NE6       29.89F
SHERIDAN       SUNNY     76  33  21 N6        29.89S
BUFFALO        SUNNY     78  15   9 NE3       29.94F
GILLETTE       SUNNY     77  29  17 S6        29.91F
HULETT         FAIR      75  36  23 S7        29.94
NEWCASTLE      FAIR      72  32  23 MISG      29.96

$$
WYZ014>020-022>026-101>103-210000-
CENTRAL WYOMING

CITY           SKY/WX    TMP DP  RH WIND       PRES   REMARKS
BIG PINEY      MOSUNNY   62  30  29 SW10      30.10F
PINEDALE       MOCLDY    64  30  27 S6        30.11F
DUBOIS         FAIR      63  27  25 W12       30.08S
LANDER         SUNNY     71  29  21 CALM      29.98F
RIVERTON       SUNNY     69  28  21 E5        30.00S
CASPER         SUNNY     73  29  19 SW16      30.00F
DOUGLAS        SUNNY     77  33  20 CALM      30.00S

$$
WYZ021-027>030-104>119-210000-
SOUTHERN WYOMING

CITY           SKY/WX    TMP DP  RH WIND       PRES   REMARKS
EVANSTON       MOSUNNY   64  31  28 SW14      30.10F
KEMMERER       MOCLDY    66  28  24 SW9G17    30.12F
FORT BRIDGER   MOCLDY    65  32  29 S8        30.14S
ROCK SPRINGS   MOSUNNY   67  27  22 VRB5      30.10F
DIXON          FAIR      69  34  27 SW8G17    30.15F
RAWLINS        SUNNY     66  32  28 SW16G23   30.12F
SARATOGA       FAIR      66  32  28 W15       30.15S
LARAMIE        PTSUNNY   65  30  27 N3        30.14S
CHEYENNE       SUNNY     69  34  27 S10       30.10F
TORRINGTON     SUNNY     77  35  21 S17       29.97S
PINE BLUFFS    FAIR      73  32  21 S10       30.06F

$$



USA.gov is the U.S. government's official web portal to all federal, state and local government web resources and services.